Probability
0 0 10 10 13 16 16 16 16 16 13 13 13 13 10 10 13 13 10 6 10 13 16 16 16 10 6 3 3 3 3 3 0 0 0 0 0 0 0 3 0 0 3
0 0 10 10 13 16 19 19 19 19 16 16 16 10 6 6 10 10 10 6 6 10 10 13 10 6 6 3 6 3 0 0 0 0 0 0 0 3 0 0 0 0 3
0 0 6 13 23 19 16 16 19 19 13 16 16 10 13 13 10 10 10 10 10 10 6 3 3 6 3 3 3 0 0 0 0 0 0 0 0 3 3 6 10 3 0
0 3 6 10 23 19 19 19 19 19 19 16 16 16 13 6 6 10 6 10 10 13 10 6 3 3 0 0 0 0 0 0 0 0 0 0 0 0 3 3 3 3 3
0 3 6 16 19 23 16 19 19 19 16 16 16 16 10 10 10 10 10 10 10 6 6 6 6 0 0 0 0 0 0 0 0 0 0 0 0 0 0 0 3 3 3
3 3 3 16 16 19 19 19 19 16 16 16 13 13 13 10 10 10 10 10 6 6 6 3 3 3 0 3 0 0 0 0 0 0 0 0 0 0 0 0 0 3 3
3 3 3 16 16 16 19 13 13 13 10 13 13 13 13 10 10 6 6 6 6 3 3 3 3 3 0 3 0 0 0 0 0 0 0 0 0 3 0 3 0 3 3
3 3 3 16 13 13 13 16 13 10 10 10 13 13 13 10 6 6 6 3 3 3 0 0 0 3 3 0 0 0 0 0 0 0 0 0 0 0 0 3 3 3 3
3 3 3 6 6 13 10 10 10 10 10 6 6 6 6 6 6 6 6 6 3 3 0 0 0 0 3 0 0 0 0 0 0 0 0 0 3 0 0 0 3 3 3
3 3 3 3 3 6 6 6 6 6 3 3 3 3 0 0 0 0 0 0 0 0 0 0 0 0 0 0 0 0 0 0 0 0 0 0 3 0 0 0 0 0 3
3 3 3 3 3 3 3 3 3 3 3 3 0 0 0 0 0 0 0 0 0 0 0 0 0 0 0 0 0 0 0 0 0 0 0 0 3 3 3 0 0 0 0
3 3 3 3 3 3 3 0 0 3 0 0 0 0 0 0 0 0 0 0 0 0 0 0 0 0 0 0 0 0 0 0 0 0 0 0 0 0 0 0 0 0 0
3 3 3 3 3 3 0 0 0 0 0 0 0 0 0 0 0 0 0 0 0 0 0 0 0 0 0 0 0 0 0 0 0 0 0 0 0 0 0 0 0 0 0
3 3 3 3 3 3 0 0 0 0 0 0 0 0 0 0 0 0 0 0 0 0 0 0 0 0 0 0 0 0 0 0 0 0 0 0 0 0 0 0 0 0 0
3 3 3 3 3 3 0 0 0 0 0 0 0 0 0 0 0 0 0 0 0 0 0 0 0 0 0 0 0 0 0 0 0 0 0 0 0 0 0 0 0 0 0
3 3 3 3 3 0 0 0 0 0 0 0 0 0 0 0 0 0 0 0 0 0 0 0 0 0 0 0 0 0 0 0 0 0 0 0 0 0 0 0 0 0 0
3 3 3 3 0 0 0 0 0 0 0 0 0 0 0 0 0 0 0 0 0 0 0 0 0 0 0 0 0 0 0 0 0 0 0 0 0 0 0 0 0 0 0
0 3 3 0 0 0 0 0 0 0 0 0 0 0 0 0 0 0 0 0 0 0 0 0 0 0 0 0 0 0 0 0 0 0 0 0 0 0 0 0 0 0 0
0 3 0 0 0 0 0 0 0 0 0 0 0 0 0 0 0 0 0 0 0 0 0 0 0 0 0 0 0 0 0 0 0 0 0 0 0 0 0 0 0 0 0
0 0 0 0 0 0 0 0 0 0 0 0 0 0 0 0 0 0 0 0 0 0 0 0 0 0 0 0 0 0 0 0 0 0 0 0 0 0 0 0 0 0 0
0 0 0 0 0 0 0 0 0 0 0 0 0 0 0 0 0 0 0 0 0 0 0 0 0 0 0 0 0 0 0 0 0 0 0 0 0 0 0 0 0 0 0
0 0 0 0 0 0 0 0 0 0 0 0 0 0 0 0 0 0 0 0 0 0 0 0 0 0 0 0 0 0 0 0 0 0 0 0 0 0 0 0 0 0 0
0 0 0 0 0 0 0 0 0 0 0 0 0 0 0 0 0 0 0 0 0 0 0 0 0 0 0 0 0 0 0 0 0 0 0 0 0 0 0 0 0 0 0
0 0 0 0 0 0 0 0 0 0 0 0 0 0 0 0 0 0 0 0 0 0 0 0 0 0 0 0 0 0 0 0 0 0 0 0 0 0 0 0 0 0 0
0 0 0 0 0 0 0 0 0 0 0 0 0 0 0 0 0 0 0 0 0 0 0 0 0 0 0 0 0 0 0 0 0 0 0 0 0 0 0 0 0 0 0
0 0 0 0 0 0 0 0 0 0 0 0 0 0 0 0 0 0 0 0 0 0 0 0 0 0 0 0 0 0 0 0 0 0 0 0 0 0 0 0 0 0 0
Height
5820 5821 5821 5822 5823 5824 5825 5826 5827 5828 5829 5830 5831 5832 5833 5834 5835 5836 5837 5838 5839 5840 5841 5842 5843 5844 5844 5845 5846 5846 5847 5847 5848 5848 5848 5849 5849 5849 5850 5850 5850 5850 5850
5818 5818 5819 5820 5821 5822 5823 5824 5825 5826 5827 5828 5829 5830 5831 5833 5834 5835 5836 5837 5838 5839 5840 5841 5841 5842 5843 5844 5844 5845 5846 5846 5847 5847 5848 5848 5848 5849 5849 5849 5850 5850 5850
5815 5816 5817 5817 5819 5820 5820 5821 5823 5824 5825 5826 5827 5828 5829 5831 5832 5833 5834 5835 5836 5837 5838 5839 5840 5841 5841 5842 5843 5843 5844 5845 5846 5846 5846 5847 5847 5847 5848 5848 5849 5849 5849
5812 5813 5814 5815 5816 5817 5818 5819 5820 5821 5823 5824 5825 5826 5827 5828 5830 5831 5832 5833 5834 5835 5836 5837 5838 5839 5840 5840 5841 5842 5843 5843 5844 5845 5845 5845 5846 5846 5846 5847 5847 5848 5848
5809 5810 5811 5812 5813 5814 5815 5816 5817 5819 5820 5821 5822 5824 5825 5826 5827 5828 5830 5831 5832 5833 5834 5835 5836 5837 5838 5838 5839 5840 5841 5841 5842 5843 5843 5844 5844 5845 5845 5846 5846 5846 5847
5805 5806 5807 5808 5810 5811 5812 5813 5814 5816 5817 5818 5820 5821 5822 5824 5825 5826 5827 5828 5829 5830 5832 5833 5834 5835 5835 5836 5837 5838 5838 5839 5840 5841 5841 5842 5842 5843 5843 5844 5844 5845 5845
5801 5802 5803 5804 5806 5807 5808 5809 5811 5812 5814 5815 5816 5818 5819 5820 5821 5823 5824 5825 5826 5827 5829 5830 5831 5832 5833 5834 5834 5835 5836 5837 5837 5838 5839 5839 5840 5841 5841 5841 5842 5842 5843
5797 5798 5799 5800 5802 5803 5804 5805 5807 5808 5810 5811 5813 5814 5815 5817 5818 5819 5820 5822 5823 5824 5825 5827 5828 5829 5830 5831 5832 5833 5833 5834 5835 5835 5836 5837 5837 5838 5838 5839 5840 5840 5840
5792 5793 5795 5796 5797 5799 5800 5801 5803 5804 5806 5807 5808 5810 5811 5813 5814 5815 5817 5818 5819 5821 5822 5823 5824 5826 5827 5828 5829 5829 5830 5831 5832 5833 5833 5834 5834 5835 5835 5836 5837 5837 5838
5787 5788 5790 5791 5792 5794 5795 5796 5798 5799 5801 5802 5804 5805 5807 5808 5810 5811 5812 5814 5815 5817 5818 5819 5820 5822 5823 5824 5825 5826 5827 5828 5829 5829 5830 5831 5831 5832 5832 5833 5833 5834 5835
5782 5783 5784 5785 5787 5788 5789 5791 5792 5794 5795 5797 5798 5800 5802 5803 5804 5806 5808 5809 5811 5812 5813 5815 5816 5817 5819 5820 5821 5822 5823 5824 5825 5825 5826 5827 5827 5828 5828 5829 5830 5831 5831
5776 5777 5778 5779 5781 5782 5783 5785 5787 5788 5790 5792 5793 5795 5796 5798 5799 5801 5802 5804 5805 5807 5808 5810 5811 5813 5814 5815 5816 5817 5818 5819 5820 5821 5822 5822 5823 5824 5824 5825 5826 5827 5827
5769 5770 5772 5773 5774 5776 5777 5779 5780 5782 5784 5786 5787 5789 5790 5792 5793 5795 5796 5798 5800 5801 5803 5804 5806 5807 5808 5809 5810 5811 5812 5813 5814 5816 5817 5817 5818 5819 5820 5820 5821 5822 5823
5762 5763 5765 5766 5767 5769 5770 5772 5774 5775 5777 5779 5780 5782 5783 5785 5787 5788 5790 5791 5793 5795 5796 5798 5799 5801 5802 5804 5805 5806 5807 5808 5808 5810 5811 5812 5813 5814 5814 5815 5816 5817 5818
5754 5755 5757 5759 5760 5761 5763 5765 5766 5768 5770 5771 5773 5774 5776 5778 5779 5781 5782 5784 5785 5787 5789 5791 5792 5794 5795 5797 5798 5799 5800 5801 5802 5803 5804 5806 5807 5808 5809 5810 5811 5812 5813
5746 5747 5749 5751 5752 5753 5755 5757 5758 5760 5762 5763 5765 5766 5768 5769 5771 5773 5774 5775 5777 5779 5781 5783 5784 5786 5788 5789 5791 5792 5793 5794 5795 5797 5798 5799 5800 5801 5802 5803 5805 5806 5807
5738 5739 5741 5742 5744 5745 5746 5748 5750 5751 5753 5755 5756 5757 5759 5760 5762 5763 5765 5766 5768 5770 5772 5774 5776 5778 5779 5781 5783 5784 5785 5786 5788 5789 5790 5792 5793 5794 5795 5796 5798 5799 5800
5729 5730 5732 5733 5735 5736 5738 5739 5741 5742 5743 5745 5746 5748 5749 5751 5752 5754 5755 5757 5759 5761 5763 5765 5767 5768 5770 5772 5774 5775 5776 5778 5779 5781 5782 5784 5785 5786 5787 5789 5790 5791 5792
5720 5721 5723 5724 5726 5727 5729 5730 5731 5732 5734 5735 5736 5737 5739 5740 5741 5743 5745 5746 5748 5750 5752 5754 5756 5759 5761 5762 5764 5766 5767 5769 5770 5772 5773 5775 5776 5778 5779 5780 5782 5783 5784
5710 5712 5713 5715 5716 5718 5719 5720 5721 5722 5723 5724 5725 5726 5727 5728 5730 5732 5733 5735 5737 5739 5741 5743 5746 5748 5750 5752 5754 5756 5757 5759 5760 5762 5763 5765 5767 5768 5770 5771 5773 5774 5775
5700 5702 5703 5705 5706 5707 5708 5709 5710 5711 5712 5712 5713 5714 5715 5716 5718 5720 5722 5723 5725 5728 5730 5732 5734 5736 5739 5741 5743 5745 5747 5748 5750 5752 5753 5755 5756 5758 5760 5761 5763 5764 5766
5689 5690 5692 5694 5695 5696 5697 5698 5698 5699 5700 5700 5701 5702 5703 5704 5706 5708 5710 5712 5714 5716 5718 5720 5722 5725 5727 5729 5732 5734 5736 5739 5739 5741 5743 5744 5746 5747 5749 5751 5752 5754 5756
5678 5679 5680 5682 5683 5684 5685 5685 5686 5687 5687 5688 5689 5690 5691 5692 5694 5695 5697 5699 5701 5704 5706 5708 5710 5713 5715 5717 5720 5722 5725 5727 5729 5731 5732 5733 5735 5736 5738 5739 5741 5743 5744
5666 5667 5669 5670 5671 5672 5673 5673 5674 5675 5676 5676 5677 5678 5679 5680 5681 5683 5685 5687 5689 5691 5693 5695 5698 5700 5703 5705 5708 5710 5712 5715 5717 5720 5721 5722 5723 5724 5726 5728 5729 5731 5732
5654 5656 5657 5658 5659 5660 5660 5661 5661 5662 5663 5664 5664 5665 5666 5667 5669 5670 5672 5674 5676 5678 5681 5683 5685 5688 5690 5693 5695 5697 5700 5702 5704 5706 5709 5710 5711 5712 5713 5715 5716 5718 5720
5642 5643 5644 5645 5647 5647 5648 5648 5649 5650 5650 5651 5652 5653 5654 5655 5656 5657 5659 5661 5663 5666 5668 5670 5673 5675 5678 5680 5682 5685 5687 5689 5692 5693 5695 5697 5699 5700 5701 5702 5703 5705 5706
Wind_Speed
12 12 12 12 11 12 12 12 11 11 11 11 10 9 9 8 8 8 9 8 8 7 7 8 8 7 7 7 7 7 6 5 5 5 4 4 3 3 3 2 2 2 1
13 13 13 13 13 12 12 12 12 12 11 11 11 11 10 10 9 9 9 9 9 8 8 8 8 8 8 8 8 8 7 7 6 6 5 4 4 4 4 3 3 3 3
14 14 14 14 14 14 14 14 13 13 12 12 12 12 12 11 11 10 10 10 10 9 9 9 9 9 9 9 9 8 8 8 7 7 6 5 5 5 5 5 4 4 4
16 15 15 15 15 15 15 15 15 14 13 13 13 13 13 12 13 12 12 11 11 11 11 10 10 10 10 9 9 9 9 9 9 8 7 7 6 6 6 6 6 6 5
18 17 17 17 17 17 16 16 16 15 15 14 14 14 14 13 13 13 13 13 12 12 12 11 12 12 12 11 10 10 10 10 10 10 9 9 8 8 8 8 7 7 7
19 19 19 19 19 19 18 18 17 17 16 16 16 15 15 15 14 14 15 14 14 14 14 13 12 12 13 12 12 12 11 11 11 11 11 11 10 10 10 10 9 9 9
21 21 20 20 21 20 20 21 20 19 19 18 17 17 17 17 16 16 16 16 15 15 15 14 14 13 13 13 13 13 13 13 12 12 12 12 12 12 12 12 11 11 10
22 22 22 22 22 22 22 22 21 21 21 20 19 18 19 19 19 19 18 17 17 17 16 16 15 15 15 15 14 14 14 14 14 13 13 13 13 13 13 13 13 13 12
23 23 23 23 23 23 24 24 23 23 22 22 22 21 20 20 20 20 20 19 19 19 18 18 18 17 17 17 17 16 16 16 16 16 15 15 14 14 15 15 15 14 14
24 24 24 24 25 25 25 25 25 25 24 23 24 23 23 23 23 22 22 22 21 21 20 20 20 19 19 19 19 19 18 18 17 17 17 17 17 17 16 17 17 16 16
26 26 26 26 27 27 27 27 27 26 26 25 25 25 25 25 25 25 24 24 24 24 23 23 22 21 21 21 21 21 21 21 20 20 19 19 19 19 19 19 19 18 18
27 28 28 28 28 28 29 28 28 28 27 27 27 27 27 27 27 27 27 26 26 26 26 25 25 25 24 23 23 23 23 23 23 22 22 22 21 21 21 21 20 20 20
29 29 29 30 30 30 30 30 30 30 30 29 29 30 30 29 28 28 28 28 28 28 28 28 27 27 26 26 25 25 25 25 25 25 24 24 24 23 23 22 22 22 22
31 31 31 32 32 32 32 32 32 32 32 31 31 32 32 32 31 31 31 31 31 31 31 30 30 29 28 28 28 27 26 26 26 26 26 26 26 25 25 24 24 25 25
34 33 33 33 34 34 34 34 34 34 34 34 33 33 34 34 34 33 34 34 33 33 33 33 32 31 31 30 30 29 28 28 28 28 28 28 28 27 27 26 26 26 26
35 35 35 35 35 36 36 36 36 36 36 36 36 36 36 36 36 36 36 35 35 35 35 35 35 34 33 32 32 32 31 31 30 30 29 29 29 29 29 29 28 28 28
36 36 36 36 36 36 37 37 38 38 37 37 38 38 38 38 38 38 38 38 38 37 37 37 37 36 36 35 35 34 34 33 33 32 32 32 31 32 32 31 31 30 30
37 38 37 37 37 37 38 38 39 39 39 39 39 39 39 39 39 40 40 40 40 40 40 40 39 39 38 38 37 36 36 36 35 35 34 34 34 33 33 33 33 33 32
39 39 39 38 39 39 39 39 40 41 41 41 41 41 41 41 41 42 42 42 42 42 43 42 42 42 41 41 40 39 38 38 37 37 37 36 36 36 35 35 35 35 35
41 41 41 41 41 41 41 41 41 42 43 43 44 43 43 43 43 43 43 43 43 43 44 44 44 44 44 43 43 42 42 41 40 40 39 38 38 38 37 37 36 36 37
43 43 43 43 43 43 42 43 43 44 44 45 45 45 44 44 44 44 44 45 45 45 45 45 45 45 45 45 45 44 43 43 43 42 41 41 40 40 40 40 40 39 39
44 45 44 44 44 44 44 44 44 45 45 44 45 46 46 46 46 46 45 46 46 46 46 46 46 46 46 45 45 45 45 44 44 44 43 43 43 42 42 42 42 42 42
46 46 46 46 46 45 45 45 45 45 45 45 45 46 47 47 47 47 46 47 47 47 47 46 47 46 46 46 46 46 46 46 46 45 44 45 45 44 44 45 45 45 45
46 47 47 47 47 47 46 46 46 45 45 46 46 46 47 48 48 48 47 47 47 47 47 47 47 47 47 47 47 47 47 47 47 46 46 46 47 47 47 47 48 48 48
46 47 47 47 47 47 47 47 47 46 46 47 47 47 47 48 48 48 48 48 48 47 47 48 48 48 48 48 48 48 48 47 47 47 46 47 47 48 48 49 49 49 50
46 47 47 47 47 47 47 47 48 48 48 48 48 48 48 48 48 48 49 49 48 48 48 48 47 47 48 48 48 48 48 48 47 47 47 47 47 47 48 49 50 50 50
Wind_Direction
249 251 252 249 246 242 237 234 235 237 238 237 237 238 238 237 240 241 241 241 243 246 250 253 256 259 262 266 265 266 270 273 275 277 277 272 270 268 275 284 286 278 280
249 250 252 252 248 245 241 237 237 238 239 240 239 239 240 240 241 243 244 244 244 246 252 256 257 258 260 263 264 263 264 266 269 269 269 266 264 264 267 270 266 263 260
248 248 249 250 248 246 245 240 240 241 241 243 241 241 243 244 245 244 246 246 247 249 251 256 259 257 260 263 264 264 262 262 264 264 263 263 260 260 263 265 264 262 261
248 248 248 249 249 248 247 244 241 243 243 243 244 243 243 246 247 245 245 247 249 251 252 255 258 259 263 264 264 262 262 262 261 261 261 261 261 259 259 261 263 263 260
248 248 249 249 249 248 248 245 242 243 245 245 246 245 243 246 248 247 244 246 248 250 253 255 257 259 260 261 262 261 262 263 262 260 260 262 262 260 258 257 261 260 259
248 248 249 248 248 248 248 248 245 244 245 245 247 247 245 245 246 247 245 247 249 251 252 254 255 256 258 259 260 262 263 264 264 261 260 261 262 261 259 256 258 259 258
249 249 249 248 248 248 249 249 247 247 246 246 247 248 248 248 247 247 247 248 249 249 250 252 253 254 258 260 261 262 262 264 264 263 261 260 261 261 259 256 255 256 256
250 249 250 249 249 250 251 250 249 249 248 247 247 248 250 251 249 248 248 249 249 249 249 250 253 254 257 260 261 262 262 262 262 263 263 262 261 261 260 257 256 256 256
252 250 250 249 250 251 252 253 252 250 249 248 247 248 249 250 251 250 249 249 249 249 250 251 252 253 255 257 259 260 261 262 261 261 263 263 263 262 261 258 257 256 257
253 252 251 251 251 251 252 252 252 252 252 251 249 248 249 251 252 252 251 250 249 250 250 251 252 252 255 257 258 258 259 260 261 262 262 263 265 263 261 259 257 257 257
253 253 253 252 251 251 251 252 252 253 253 252 251 250 250 252 253 253 252 251 251 251 252 253 254 255 256 258 259 260 260 260 261 262 262 262 264 264 262 260 258 258 258
255 255 255 254 252 251 251 251 253 254 254 254 253 252 251 253 254 253 252 253 252 252 253 254 256 257 257 259 261 261 262 262 261 261 261 262 263 264 263 261 259 258 260
256 256 255 255 253 252 252 252 252 253 254 255 255 254 253 254 254 255 254 253 253 254 254 255 256 257 259 259 261 263 263 262 262 262 262 261 262 263 263 261 260 260 260
257 257 256 256 255 254 254 254 254 254 254 255 255 254 254 255 255 256 256 255 253 254 255 255 256 258 259 260 261 262 263 263 263 262 262 261 261 262 262 261 260 260 261
257 256 255 256 256 255 255 254 254 255 255 255 256 255 255 255 255 256 256 257 255 255 255 255 256 258 259 260 261 261 262 263 263 263 262 261 261 261 261 261 261 261 261
258 256 256 256 257 256 256 256 256 256 256 256 256 257 256 257 257 256 256 256 256 256 256 256 257 258 259 260 260 260 261 261 262 261 261 261 261 261 262 262 262 261 261
258 257 257 257 258 258 258 257 257 256 256 257 257 258 258 258 258 257 256 255 255 255 257 258 258 258 259 260 260 260 260 260 260 261 260 261 261 261 262 262 262 262 262
259 258 257 258 258 258 258 258 257 257 257 257 257 257 257 257 258 258 258 257 257 257 257 258 258 258 259 259 260 260 261 261 261 261 260 260 261 262 262 262 262 262 262
258 258 258 258 258 258 258 259 259 258 257 258 258 258 259 259 259 259 259 258 258 258 258 258 258 258 258 259 260 261 261 262 261 261 261 260 260 261 261 262 262 262 262
257 258 258 258 259 259 259 260 259 259 258 258 259 259 259 259 259 258 258 258 259 259 259 259 259 259 259 259 260 261 261 262 262 262 262 261 260 260 261 261 262 262 262
257 258 258 258 259 260 261 261 261 260 260 259 259 258 258 257 258 258 258 259 259 259 260 260 259 259 259 260 260 260 261 262 262 261 261 261 260 260 260 261 261 262 262
257 258 258 259 260 261 261 261 261 261 260 260 259 259 259 259 259 259 259 259 259 259 259 259 259 259 259 260 260 261 260 260 260 261 261 260 260 260 260 261 261 262 262
257 257 259 260 261 261 262 262 261 261 260 260 259 259 260 260 260 260 259 260 259 259 259 258 258 257 258 259 259 260 260 259 259 260 260 260 260 260 260 260 260 261 262
257 258 258 259 260 261 262 262 262 262 261 261 260 260 260 260 260 260 260 260 260 259 258 257 257 257 258 259 259 260 260 260 259 259 260 260 261 261 261 261 261 261 262
259 259 260 260 260 261 262 262 262 262 262 262 261 261 261 261 261 261 261 260 260 259 259 259 258 257 258 258 259 260 260 261 261 260 260 260 261 261 262 262 262 262 262
260 260 261 261 261 261 262 262 261 261 262 262 262 262 261 261 262 261 261 261 260 259 259 259 258 257 257 258 259 260 260 260 260 260 260 260 261 262 262 263 263 263 263